Location: Tucson
(32.2217°N, 110.9265°W)
Time: 07:39:20
(UTC-07:00)

Tiros 1 - Pass Details

Date: 31 October 2021
Orbit: 629 x 664 km, 48.4° (Epoch: 26 November)

Event Time Altitude Azimuth Distance (km) Brightness Sun altitude
Rises 14:54:18 0° 301° (WNW) 2,959 10.7 28.6°
Reaches altitude 10° 14:56:46 10° 293° (WNW) 2,039 10.1 28.2°
Maximum altitude 15:01:05 37° 227° (SW) 998 10.7 27.5°
Drops below altitude 10° 15:05:20 10° 160° (SSE) 2,010 10.0 26.9°
Sets 15:07:46 0° 152° (SSE) 2,910 10.7 26.5°
